Regional Weather Roundup
Issued by NWS

Home | Current Version | Previous Version | Graphics & Text | Print | Product List | Glossary On
Versions: 1 2 3 4 5 6 7 8 9 10 11 12 13 14 15 16 17 18 19 20 21 22 23 24 25 26 27 28 29 30 31 32 33 34 35 36 37 38 39 40 41 42 43 44 45 46 47 48 49 50
399
ASUS43 KLMK 231410
RWRKY
KENTUCKY REGIONAL WEATHER ROUNDUP
NATIONAL WEATHER SERVICE LOUISVILLE KY
1000 AM EDT MON APR 23 2018

NOTE "FAIR" INDICATES FEW OR NO CLOUDS BELOW 12,000 FEET
WITH NO SIGNIFICANT WEATHER AND/OR OBSTRUCTIONS TO VISIBILITY.

KYZ001>023-026-027-061>063-070>075-231500-
WESTERN AND SOUTH CENTRAL KENTUCKY

CITY           SKY/WX    TMP DP  RH WIND       PRES   REMARKS
PADUCAH        RAIN      59  57  93 E9        29.86R FOG
HENDERSON      CLOUDY    58  55  90 E12       29.95R
OWENSBORO      CLOUDY    60  54  80 E14G22    29.96R
HOPKINSVILLE   CLOUDY    60  60 100 E14       29.90R
BOWLING GREEN  LGT RAIN  59  56  89 SE8       29.98R
GLASGOW        CLOUDY    58  53  83 E10       29.99S
$$

KYZ024-025-028>034-038-045-046-053-231500-
NORTH CENTRAL KENTUCKY

CITY           SKY/WX    TMP DP  RH WIND       PRES   REMARKS
LOUISVILLE/SDF LGT RAIN  56  53  90 E14       30.04S
LOUISVILLE/LOU LGT RAIN  55  54  96 E10       30.05S FOG
FORT KNOX      PTSUNNY   55  55  99 E12       30.02S
$$

KYZ035>037-039>044-047>052-055>060-089>105-231500-
NORTHEAST KENTUCKY

CITY           SKY/WX    TMP DP  RH WIND       PRES   REMARKS
LEXINGTON      HVY RAIN  55  51  86 E12       30.08R FOG
COVINGTON      LGT RAIN  57  44  62 E8        30.11S
FRANKFORT      RAIN      54  49  83 E9        30.07R
$$

KYZ054-064>069-076>088-106>120-231500-
SOUTHEAST KENTUCKY

CITY           SKY/WX    TMP DP  RH WIND       PRES   REMARKS
JACKSON        RAIN      54  51  90 SE7       30.12R FOG
LONDON         LGT RAIN  54  52  93 E9        30.07S
SOMERSET       LGT RAIN  54  54 100 E3        30.08R
MIDDLESBORO    LGT RAIN  55  52  91 SE5       30.11S
MONTICELLO     NOT AVBL
$$





USA.gov is the U.S. government's official web portal to all federal, state and local government web resources and services.